Weather History for KJST - November, 2011

Change the Weather History Date:

Sunday, November 20, 2011

  Actual Average Record
Temperature  
Mean Temperature 52 °F 38 °F  
Max Temperature 55 °F 44 °F 78 °F (1904)
Min Temperature 48 °F 32 °F 12 °F (1966)
Degree Days  
Heating Degree Days 14 27  
Month to date heating degree days 466  
Since 1 July heating degree days 1159  
Cooling Degree Days 0 0  
Month to date cooling degree days 0  
Year to date cooling degree days 382  
Growing Degree Days 2 (Base 50)    
Moisture  
Dew Point 49 °F    
Average Humidity 89    
Maximum Humidity 100    
Minimum Humidity 61    
Precipitation  
Precipitation 0.18 in 0.12 in 2.10 in (1986)
Month to date precipitation 2.40  
Year to date precipitation 29.75  
Sea Level Pressure  
Sea Level Pressure 30.15 in    
Wind  
Wind Speed 13 mph (WSW)    
Max Wind Speed 21 mph    
Max Gust Speed 31 mph    
Visibility 6 miles    
Events Fog , Rain    
T = Trace of Precipitation, MM = Missing Value Source: NWS Daily Summary

Daily Weather History Graph

Daily Weather History Graph

Search for Another Location

Airport or City:

Trip Planner

Search our weather history database for the weather conditions in past years. The results will help you decide how hot, cold, wet, or windy it might be!

Date:

Astronomy

Nov. 20, 2011 Rise Set
Actual Time 7:06 AM EST 4:54 PM EST
Civil Twilight 6:37 AM EST 5:24 PM EST
Nautical Twilight 6:03 AM EST 5:57 PM EST
Astronomical Twilight 5:31 AM EST 6:29 PM EST
Moon 1:32 AM EST (11/20) 1:43 PM EST (11/20)
Length of Visible Light 10h 47m
Length of Day
9h 48m
Waning Crescent, 27% of the Moon is Illuminated
Nov 20
Waning Crescent
Nov 25
New
Dec 2
First Quarter
Dec 10
Full
Dec 17
Last Quarter

Hourly Weather History & Observations

Time (EST) Temp. Dew Point Humidity Pressure Visibility Wind Dir Wind Speed Gust Speed Precip Events Conditions
12:54 AM 48.2 °F 35.6 °F 62% 30.09 in 10.0 mi SSW 11.5 mph 20.7 mph N/A   Mostly Cloudy
1:54 AM 51.1 °F 37.9 °F 61% 30.09 in 10.0 mi SSW 10.4 mph 19.6 mph N/A   Overcast
2:54 AM 51.1 °F 39.9 °F 66% 30.09 in 10.0 mi SW 9.2 mph - N/A   Overcast
3:54 AM 53.1 °F 44.1 °F 71% 30.09 in 10.0 mi WSW 18.4 mph 27.6 mph 0.00 in   Overcast
4:54 AM 54.0 °F 43.0 °F 66% 30.10 in 10.0 mi WSW 18.4 mph 26.5 mph N/A   Overcast
5:54 AM 54.0 °F 44.1 °F 69% 30.12 in 10.0 mi WSW 18.4 mph 26.5 mph N/A   Overcast
6:43 AM 53.6 °F 44.6 °F 72% 30.10 in 10.0 mi West 18.4 mph 26.5 mph N/A   Mostly Cloudy
6:54 AM 53.6 °F 44.6 °F 72% 30.11 in 10.0 mi WSW 20.7 mph 28.8 mph N/A   Overcast
7:54 AM 54.0 °F 46.0 °F 75% 30.15 in 10.0 mi WSW 18.4 mph 28.8 mph N/A   Overcast
8:23 AM 53.6 °F 46.4 °F 77% 30.13 in 10.0 mi WSW 17.3 mph 24.2 mph N/A   Overcast
8:54 AM 54.0 °F 46.9 °F 77% 30.16 in 10.0 mi West 20.7 mph 28.8 mph N/A   Mostly Cloudy
9:02 AM 53.6 °F 46.4 °F 77% 30.14 in 10.0 mi West 17.3 mph 25.3 mph N/A   Mostly Cloudy
9:54 AM 54.0 °F 48.0 °F 80% 30.18 in 10.0 mi West 20.7 mph 31.1 mph N/A   Overcast
10:38 AM 55.4 °F 48.2 °F 77% 30.16 in 10.0 mi West 18.4 mph 29.9 mph N/A   Overcast
10:54 AM 55.0 °F 48.9 °F 80% 30.17 in 10.0 mi WSW 20.7 mph 28.8 mph N/A   Overcast
11:15 AM 55.4 °F 48.2 °F 77% 30.16 in 10.0 mi West 19.6 mph 27.6 mph N/A   Mostly Cloudy
11:54 AM 55.0 °F 48.9 °F 80% 30.17 in 10.0 mi West 15.0 mph 26.5 mph N/A   Overcast
12:15 PM 53.6 °F 50.0 °F 88% 30.14 in 10.0 mi West 13.8 mph 27.6 mph N/A   Overcast
12:54 PM 54.0 °F 50.0 °F 86% 30.15 in 10.0 mi West 16.1 mph 24.2 mph N/A   Overcast
1:26 PM 53.6 °F 50.0 °F 88% 30.15 in 10.0 mi West 15.0 mph 20.7 mph N/A   Overcast
1:54 PM 52.0 °F 51.1 °F 97% 30.15 in 2.5 mi West 12.7 mph 21.9 mph 0.00 in Rain Light Rain
2:08 PM 51.8 °F 51.8 °F 100% 30.15 in 4.0 mi West 12.7 mph 20.7 mph 0.00 in   Overcast
2:30 PM 51.8 °F 51.8 °F 100% 30.14 in 4.0 mi West 11.5 mph 19.6 mph 0.00 in   Overcast
2:54 PM 52.0 °F 51.1 °F 97% 30.15 in 7.0 mi WSW 13.8 mph - 0.00 in   Overcast
3:54 PM 53.1 °F 51.1 °F 93% 30.15 in 10.0 mi West 13.8 mph 21.9 mph N/A   Overcast
4:54 PM 53.1 °F 51.1 °F 93% 30.15 in 9.0 mi West 9.2 mph - N/A   Overcast
5:54 PM 51.8 °F 50.0 °F 94% 30.16 in 9.0 mi SW 8.1 mph - N/A   Overcast
6:34 PM 51.8 °F 51.8 °F 100% 30.18 in 8.0 mi WSW 6.9 mph - 0.00 in Rain Light Rain
6:54 PM 51.8 °F 51.8 °F 100% 30.17 in 5.0 mi SW 5.8 mph - N/A Rain Light Rain
7:29 PM 51.8 °F 51.8 °F 100% 30.17 in 4.0 mi WSW 5.8 mph - 0.01 in Rain Light Rain
7:38 PM 51.8 °F 51.8 °F 100% 30.18 in 4.0 mi WSW 6.9 mph - 0.01 in Rain Light Rain
7:54 PM 51.1 °F 51.1 °F 100% 30.19 in 3.0 mi West 6.9 mph - 0.02 in Rain Light Rain
8:07 PM 51.8 °F 51.8 °F 100% 30.19 in 2.0 mi West 6.9 mph - 0.02 in Rain Rain
8:14 PM 51.8 °F 51.8 °F 100% 30.18 in 1.5 mi West 5.8 mph - 0.05 in Rain Heavy Rain
8:44 PM 51.8 °F 51.8 °F 100% 30.17 in 0.5 mi West 3.5 mph - 0.08 in Fog , Rain Light Rain
8:54 PM 51.1 °F 51.1 °F 100% 30.18 in 0.8 mi WSW 3.5 mph - 0.08 in Rain Light Rain
9:04 PM 51.8 °F 51.8 °F 100% 30.17 in 1.0 mi SW 4.6 mph - 0.01 in Rain Light Rain
9:35 PM 51.8 °F 51.8 °F 100% 30.16 in 0.5 mi SSW 4.6 mph - 0.03 in Fog , Rain Light Rain
9:48 PM 51.8 °F 51.8 °F 100% 30.15 in 2.0 mi South 4.6 mph - 0.03 in Rain Light Rain
9:49 PM 51.1 °F 51.1 °F 100% 30.16 in 2.5 mi South 5.8 mph - 0.03 in Rain Light Rain
10:05 PM 51.8 °F 51.8 °F 100% 30.15 in 4.0 mi SW 4.6 mph - 0.00 in Rain Light Rain
10:20 PM 51.8 °F 51.8 °F 100% 30.15 in 5.0 mi West 3.5 mph - 0.00 in Rain Light Rain
10:28 PM 51.8 °F 51.8 °F 100% 30.15 in 5.0 mi WNW 3.5 mph - 0.01 in Rain Light Rain
10:45 PM 51.8 °F 51.8 °F 100% 30.15 in 2.5 mi SW 3.5 mph - 0.01 in Rain Light Rain
10:54 PM 51.1 °F 51.1 °F 100% 30.17 in 0.2 mi SW 4.6 mph - 0.01 in Fog Fog
11:54 PM 51.1 °F 51.1 °F 100% 30.16 in 0.2 mi SW 3.5 mph - 0.04 in Fog , Rain Light Rain